| time (UTC) | temp C | wind direction | speed KPH | gust KPH | rain 1hr cm | rain 24hr cm | rain mn cm | humidity % | barometer mb |
| 20260506150050 | 13 | 52 | 0.0 | 0.0 | 0.00 | 0.00 | 0.00 | 87 | 1019.2 |
| 20260506144550 | 12 | 52 | 0.0 | 0.0 | 0.00 | 0.00 | 0.00 | 87 | 1019.2 |
| 20260506143049 | 12 | 52 | 0.0 | 0.0 | 0.00 | 0.00 | 0.00 | 87 | 1019.1 |
| 20260506141605 | 12 | 52 | 0.0 | 0.0 | 0.00 | 0.00 | 0.00 | 87 | 1019.0 |
| 20260506140047 | 12 | 52 | 0.0 | 0.0 | 0.00 | 0.00 | 0.00 | 87 | 1018.9 |
| 20260506134545 | 12 | 52 | 0.0 | 0.0 | 0.00 | 0.00 | 0.00 | 87 | 1018.9 |
| 20260506133045 | 12 | 52 | 0.0 | 0.0 | 0.00 | 0.00 | 0.00 | 87 | 1018.8 |
| 20260506131544 | 12 | 52 | 0.0 | 0.0 | 0.00 | 0.00 | 0.00 | 87 | 1018.8 |
| 20260506130042 | 12 | 52 | 0.0 | 0.0 | 0.00 | 0.00 | 0.00 | 87 | 1018.6 |
| 20260506124542 | 12 | 52 | 0.0 | 0.0 | 0.00 | 0.00 | 0.00 | 87 | 1018.5 |
| 20260506123043 | 12 | 52 | 0.0 | 0.0 | 0.00 | 0.00 | 0.00 | 87 | 1018.4 |
| 20260506121541 | 12 | 52 | 0.0 | 0.0 | 0.00 | 0.00 | 0.00 | 87 | 1018.5 |
| 20260506120104 | 12 | 52 | 0.0 | 0.0 | 0.00 | 0.00 | 0.00 | 87 | 1018.4 |
| 20260506114536 | 12 | 52 | 0.0 | 0.0 | 0.00 | 0.00 | 0.00 | 87 | 1018.2 |
| 20260506113036 | 12 | 52 | 0.0 | 0.0 | 0.00 | 0.00 | 0.00 | 87 | 1018.3 |
| 20260506111534 | 12 | 52 | 0.0 | 0.0 | 0.00 | 0.00 | 0.00 | 87 | 1018.2 |
| 20260506110033 | 12 | 52 | 0.0 | 0.0 | 0.00 | 0.00 | 0.00 | 87 | 1018.0 |
| 20260506104532 | 12 | 52 | 0.0 | 0.0 | 0.00 | 0.00 | 0.00 | 87 | 1017.9 |
| 20260506103032 | 12 | 52 | 0.0 | 0.0 | 0.00 | 0.00 | 0.00 | 87 | 1018.0 |
| 20260506101529 | 12 | 52 | 0.0 | 0.0 | 0.00 | 0.00 | 0.00 | 87 | 1017.7 |
| 20260506100027 | 12 | 52 | 0.0 | 0.0 | 0.00 | 0.00 | 0.00 | 87 | 1017.6 |
| 20260506094533 | 12 | 52 | 0.0 | 0.0 | 0.00 | 0.00 | 0.00 | 86 | 1017.5 |
| 20260506093041 | 12 | 52 | 0.0 | 0.0 | 0.00 | 0.00 | 0.00 | 86 | 1017.6 |
| 20260506091525 | 12 | 52 | 0.0 | 0.0 | 0.00 | 0.00 | 0.00 | 86 | 1017.6 |
| 20260506090023 | 12 | 52 | 0.0 | 0.0 | 0.00 | 0.00 | 0.00 | 86 | 1017.5 |
| 20260506084523 | 13 | 52 | 0.0 | 0.0 | 0.00 | 0.00 | 0.00 | 86 | 1017.6 |
| 20260506083022 | 13 | 52 | 0.0 | 0.0 | 0.00 | 0.00 | 0.00 | 86 | 1017.7 |
| 20260506081520 | 13 | 52 | 0.0 | 0.0 | 0.00 | 0.00 | 0.00 | 86 | 1017.6 |
| 20260506073015 | 13 | 52 | 0.0 | 0.0 | 0.00 | 0.00 | 0.00 | 86 | 1017.3 |
| 20260506071514 | 13 | 52 | 0.0 | 0.0 | 0.00 | 0.00 | 0.00 | 85 | 1017.2 |
| 20260506061507 | 13 | 52 | 0.0 | 0.0 | 0.00 | 0.03 | 0.00 | 85 | 1016.6 |
| 20260506044603 | 14 | 52 | 0.0 | 0.0 | 0.00 | 0.03 | 0.00 | 82 | 1016.0 |
| 20260506043057 | 14 | 52 | 0.0 | 0.0 | 0.00 | 0.03 | 0.00 | 81 | 1015.7 |
| 20260506041557 | 14 | 52 | 0.0 | 0.0 | 0.00 | 0.03 | 0.00 | 80 | 1015.4 |
| 20260506040058 | 15 | 52 | 0.0 | 1.6 | 0.00 | 0.03 | 0.00 | 79 | 1015.3 |
| 20260506034552 | 15 | 52 | 0.0 | 0.0 | 0.00 | 0.03 | 0.00 | 79 | 1015.1 |
| 20260506033051 | 15 | 52 | 0.0 | 0.0 | 0.00 | 0.03 | 0.00 | 79 | 1015.0 |
| 20260506031557 | 15 | 52 | 0.0 | 1.6 | 0.00 | 0.03 | 0.00 | 78 | 1014.5 |
| 20260506030105 | 16 | 52 | 0.0 | 0.0 | 0.00 | 0.03 | 0.00 | 79 | 1014.3 |
| 20260506024547 | 16 | 52 | 0.0 | 1.6 | 0.00 | 0.05 | 0.00 | 78 | 1014.1 |
| 20260506023047 | 16 | 52 | 0.0 | 0.0 | 0.00 | 0.05 | 0.00 | 81 | 1014.0 |
| 20260506021546 | 16 | 52 | 0.0 | 1.6 | 0.00 | 0.05 | 0.00 | 79 | 1013.8 |
| 20260506020046 | 16 | 52 | 0.0 | 0.0 | 0.00 | 0.05 | 0.00 | 79 | 1013.6 |
| 20260506014546 | 17 | 52 | 0.0 | 1.6 | 0.00 | 0.15 | 0.00 | 77 | 1013.4 |
| 20260506013047 | 17 | 52 | 0.0 | 0.0 | 0.00 | 0.15 | 0.00 | 77 | 1013.4 |
| 20260506011552 | 17 | 52 | 0.0 | 1.6 | 0.00 | 0.15 | 0.00 | 77 | 1013.3 |
| 20260506010044 | 17 | 52 | 0.0 | 3.2 | 0.00 | 0.15 | 0.00 | 76 | 1013.2 |
| 20260506004620 | 17 | 53 | 0.0 | 1.6 | 0.00 | 0.20 | 0.00 | 76 | 1013.1 |
| 20260506003043 | 17 | 53 | 0.0 | 1.6 | 0.00 | 0.20 | 0.00 | 76 | 1013.2 |
| 20260506001544 | 18 | 53 | 0.0 | 1.6 | 0.00 | 0.20 | 0.00 | 75 | 1013.0 |
| 20260506000045 | 18 | 73 | 0.0 | 0.0 | 0.00 | 0.20 | 0.00 | 80 | 1013.0 |
| 20260505234606 | 18 | 73 | 0.0 | 1.6 | 0.00 | 0.28 | 0.00 | 76 | 1013.0 |
| 20260505233041 | 18 | 73 | 0.0 | 1.6 | 0.00 | 0.28 | 0.00 | 75 | 1013.0 |
| 20260505231539 | 18 | 73 | 0.0 | 4.8 | 0.00 | 0.28 | 0.00 | 75 | 1013.0 |
| 20260505230038 | 18 | 73 | 0.0 | 1.6 | 0.00 | 0.28 | 0.00 | 76 | 1013.1 |
| 20260505224538 | 18 | 73 | 0.0 | 3.2 | 0.00 | 0.46 | 0.00 | 77 | 1013.2 |
| 20260505223046 | 17 | 74 | 0.0 | 1.6 | 0.00 | 0.46 | 0.00 | 81 | 1013.2 |
| 20260505221534 | 17 | 73 | 0.0 | 0.0 | 0.00 | 0.46 | 0.00 | 78 | 1013.4 |
| 20260505220032 | 17 | 73 | 0.0 | 3.2 | 0.00 | 0.46 | 0.00 | 80 | 1013.6 |
| 20260505214538 | 17 | 73 | 0.0 | 1.6 | 0.00 | 0.58 | 0.00 | 82 | 1013.8 |
| 20260505213029 | 16 | 74 | 0.0 | 0.0 | 0.00 | 0.58 | 0.00 | 83 | 1013.9 |
| 20260505211529 | 16 | 74 | 0.0 | 1.6 | 0.00 | 0.58 | 0.00 | 83 | 1014.0 |
| 20260505210030 | 16 | 74 | 0.0 | 1.6 | 0.00 | 0.58 | 0.00 | 83 | 1014.0 |
| 20260505204528 | 16 | 74 | 0.0 | 0.0 | 0.00 | 0.58 | 0.00 | 84 | 1014.1 |
| 20260505203024 | 15 | 74 | 0.0 | 1.6 | 0.00 | 0.58 | 0.00 | 85 | 1014.2 |
| 20260505201526 | 15 | 74 | 0.0 | 1.6 | 0.00 | 0.58 | 0.00 | 86 | 1014.3 |
| 20260505200024 | 15 | 74 | 0.0 | 0.0 | 0.00 | 0.58 | 0.00 | 86 | 1014.3 |
| 20260505194516 | 15 | 74 | 0.0 | 1.6 | 0.00 | 0.58 | 0.00 | 86 | 1014.5 |
| 20260505193013 | 15 | 74 | 0.0 | 0.0 | 0.00 | 0.58 | 0.00 | 87 | 1014.4 |
| 20260505191512 | 15 | 74 | 0.0 | 0.0 | 0.00 | 0.58 | 0.00 | 86 | 1014.4 |
| 20260505190010 | 14 | 71 | 0.0 | 0.0 | 0.00 | 0.58 | 0.00 | 86 | 1014.4 |
| 20260505184518 | 14 | 71 | 0.0 | 1.6 | 0.00 | 0.58 | 0.00 | 86 | 1014.4 |
| 20260505183022 | 14 | 71 | 0.0 | 0.0 | 0.00 | 0.58 | 0.00 | 86 | 1014.3 |
| 20260505181506 | 14 | 71 | 0.0 | 0.0 | 0.00 | 0.58 | 0.00 | 86 | 1014.4 |
| 20260505180005 | 14 | 71 | 0.0 | 0.0 | 0.00 | 0.58 | 0.00 | 85 | 1014.2 |
| 20260505174502 | 13 | 71 | 0.0 | 0.0 | 0.00 | 0.58 | 0.00 | 85 | 1014.0 |
| 20260505173002 | 13 | 71 | 0.0 | 0.0 | 0.00 | 0.58 | 0.00 | 81 | 1013.9 |
| 20260505171558 | 13 | 71 | 0.0 | 0.0 | 0.00 | 0.58 | 0.00 | 79 | 1013.9 |
| 20260505170101 | 13 | 71 | 0.0 | 0.0 | 0.00 | 0.58 | 0.00 | 79 | 1014.1 |
| 20260505164620 | 13 | 71 | 0.0 | 0.0 | 0.00 | 0.58 | 0.00 | 79 | 1014.0 |
| 20260505163054 | 13 | 71 | 0.0 | 0.0 | 0.00 | 0.58 | 0.00 | 78 | 1013.9 |
| 20260505161556 | 12 | 71 | 0.0 | 0.0 | 0.00 | 0.58 | 0.00 | 79 | 1013.8 |
| 20260505153049 | 12 | 71 | 0.0 | 0.0 | 0.00 | 0.58 | 0.00 | 79 | 1013.6 |
| 20260505151546 | 12 | 71 | 0.0 | 0.0 | 0.00 | 0.58 | 0.00 | 79 | 1013.5 |